SCP
3 3 3 3 4 3 4 7 6 3 3 3 3 3 3 2 3 3 3 2 2 2
3 4 5 6 5 4 4 2 2 2 2 1 1 1 1 1 1 2 2 2 2 2
4 3 2 2 1 1 1 1 1 1 1 1 1 1 1 1 1 1 1 1 2 1
1 1 1 1 0 0 0 0 0 0 0 0 0 0 0 0 0 0 0 1 1 1
0 0 0 0 0 0 0 0 0 0 0 0 0 0 0 0 0 0 0 0 0 0
0 0 0 0 0 0 0 0 0 0 0 0 0 0 0 0 0 0 0 0 0 0
0 0 0 0 0 0 0 0 0 0 0 0 0 0 0 0 0 0 0 0 0 0
0 0 0 0 0 0 0 0 0 0 0 0 0 0 0 0 0 0 0 0 0 0
0 0 0 0 0 0 0 0 0 0 0 0 0 0 0 0 0 0 0 0 0 0
0 0 0 0 0 0 0 0 0 0 0 0 0 0 0 0 0 0 0 0 0 0
0 0 0 0 0 0 0 0 0 0 0 0 0 0 0 0 0 0 0 0 0 0
0 0 0 0 0 0 0 0 0 0 0 0 0 0 0 0 0 0 0 0 0 0
0 0 0 0 0 0 0 0 0 0 0 0 0 0 0 0 0 0 0 0 0 0
0 0 0 0 0 0 0 0 0 0 0 0 0 0 0 0 0 0 0 0 0 0
Wind_Speed_500mb
40 29 27 27 27 20 22 24 18 13 13 14 22 22 25 29 24 30 38 37 38 42
37 31 39 35 35 32 25 26 29 23 24 27 28 28 34 33 34 39 42 43 45 44
55 46 40 35 29 24 20 11 9 8 11 12 13 17 16 15 18 24 23 25 29 30
44 36 32 27 24 23 25 23 19 14 14 12 10 9 10 11 14 16 18 22 28 31
46 43 40 36 31 28 25 21 17 14 10 9 7 10 10 10 13 14 16 18 20 21
48 44 40 36 29 24 19 15 12 11 9 8 11 12 12 13 16 18 20 22 24 25
45 39 34 29 22 16 13 12 10 11 12 15 17 15 20 24 28 29 26 28 28 29
40 33 27 20 12 9 9 12 14 16 17 18 21 22 38 43 40 33 31 30 29 27
32 25 20 15 12 11 13 18 19 18 19 21 21 36 46 48 47 43 30 28 25 25
26 22 18 13 13 14 19 22 22 22 23 25 27 38 49 54 42 32 23 22 21 21
19 15 11 11 13 18 20 23 23 21 20 20 27 38 44 23 18 19 25 30 31 28
14 11 13 15 18 19 18 17 16 15 13 12 27 29 21 15 14 19 22 20 21 22
14 15 16 15 15 13 13 12 8 6 8 12 18 20 21 18 18 20 19 17 18 22
14 16 12 13 11 9 7 6 8 8 12 14 13 19 20 24 19 21 17 14 13 22
Wind_Direction_500mb
192 168 165 163 185 193 184 186 197 225 204 220 231 237 243 253 267 258 260 267 268 264
146 160 171 169 170 175 190 210 224 222 235 243 251 258 266 274 276 266 268 270 272 273
161 168 175 175 178 181 190 196 204 224 242 258 274 278 282 286 283 284 289 287 282 288
147 156 149 136 126 120 117 103 96 77 62 46 24 356 337 327 325 311 313 306 299 294
118 117 117 116 113 110 104 97 88 82 61 43 12 343 335 327 311 316 311 302 304 303
114 114 112 112 106 97 89 79 66 51 30 2 342 326 321 319 313 307 302 302 300 302
111 111 108 103 98 90 75 59 34 13 356 341 330 315 277 299 301 300 298 295 295 296
107 104 101 95 84 47 10 357 355 345 343 331 333 278 285 291 299 306 304 299 296 298
101 96 89 77 53 17 353 335 331 331 324 319 313 291 285 288 294 298 301 299 297 300
98 89 75 52 24 349 333 321 321 319 317 312 308 295 294 302 306 303 303 291 271 284
96 77 48 15 348 332 327 323 322 322 322 328 296 296 305 321 348 312 275 280 296 302
64 46 10 349 332 333 330 336 345 343 330 277 284 304 339 354 14 309 299 310 333 333
27 4 352 334 343 351 5 1 2 334 356 2 344 352 356 3 5 344 337 343 330 318
2 356 353 3 20 17 355 355 16 17 12 354 357 349 2 357 355 344 345 336 331 325
Wind_Speed_850mb
40 29 27 27 27 20 22 24 18 13 13 14 22 22 25 29 24 30 38 37 38 42
37 31 39 35 35 32 25 26 29 23 24 27 28 28 34 33 34 39 42 43 45 44
55 46 40 35 29 24 20 11 9 8 11 12 13 17 16 15 18 24 23 25 29 30
44 36 32 27 24 23 25 23 19 14 14 12 10 9 10 11 14 16 18 22 28 31
46 43 40 36 31 28 25 21 17 14 10 9 7 10 10 10 13 14 16 18 20 21
48 44 40 36 29 24 19 15 12 11 9 8 11 12 12 13 16 18 20 22 24 25
45 39 34 29 22 16 13 12 10 11 12 15 17 15 20 24 28 29 26 28 28 29
40 33 27 20 12 9 9 12 14 16 17 18 21 22 38 43 40 33 31 30 29 27
32 25 20 15 12 11 13 18 19 18 19 21 21 36 46 48 47 43 30 28 25 25
26 22 18 13 13 14 19 22 22 22 23 25 27 38 49 54 42 32 23 22 21 21
19 15 11 11 13 18 20 23 23 21 20 20 27 38 44 23 18 19 25 30 31 28
14 11 13 15 18 19 18 17 16 15 13 12 27 29 21 15 14 19 22 20 21 22
14 15 16 15 15 13 13 12 8 6 8 12 18 20 21 18 18 20 19 17 18 22
14 16 12 13 11 9 7 6 8 8 12 14 13 19 20 24 19 21 17 14 13 22
Wind_Direction_850mb
192 168 165 163 185 193 184 186 197 225 204 220 231 237 243 253 267 258 260 267 268 264
146 160 171 169 170 175 190 210 224 222 235 243 251 258 266 274 276 266 268 270 272 273
161 168 175 175 178 181 190 196 204 224 242 258 274 278 282 286 283 284 289 287 282 288
147 156 149 136 126 120 117 103 96 77 62 46 24 356 337 327 325 311 313 306 299 294
118 117 117 116 113 110 104 97 88 82 61 43 12 343 335 327 311 316 311 302 304 303
114 114 112 112 106 97 89 79 66 51 30 2 342 326 321 319 313 307 302 302 300 302
111 111 108 103 98 90 75 59 34 13 356 341 330 315 277 299 301 300 298 295 295 296
107 104 101 95 84 47 10 357 355 345 343 331 333 278 285 291 299 306 304 299 296 298
101 96 89 77 53 17 353 335 331 331 324 319 313 291 285 288 294 298 301 299 297 300
98 89 75 52 24 349 333 321 321 319 317 312 308 295 294 302 306 303 303 291 271 284
96 77 48 15 348 332 327 323 322 322 322 328 296 296 305 321 348 312 275 280 296 302
64 46 10 349 332 333 330 336 345 343 330 277 284 304 339 354 14 309 299 310 333 333
27 4 352 334 343 351 5 1 2 334 356 2 344 352 356 3 5 344 337 343 330 318
2 356 353 3 20 17 355 355 16 17 12 354 357 349 2 357 355 344 345 336 331 325